Regional Weather Roundup
Issued by NWS

Home | Current Version | Previous Version | Text Only | Print | Product List | Glossary On
Versions: 1 2 3 4 5 6 7 8 9 10 11 12 13 14 15 16 17 18 19 20 21 22 23 24 25 26 27 28 29 30 31 32 33 34 35 36 37 38 39 40 41 42 43 44 45 46 47 48 49 50
000
ASUS43 KTOP 260208
RWRKS

WEATHER ROUNDUP FOR KANSAS
NATIONAL WEATHER SERVICE GOODLAND KS
900 PM CDT THU MAY 25 2017

NOTE:  "FAIR" INDICATES FEW OR NO CLOUDS BELOW 12,000 FEET WITH NO
SIGNIFICANT WEATHER AND/OR OBSTRUCTIONS TO VISIBILITY.

KSZ001>006-013>018-027>032-041>047-260300-
NORTHWEST KANSAS

CITY           SKY/WX    TMP DP  RH WIND       PRES   REMARKS
GOODLAND       PTCLDY    58  53  84 NE14      29.62F
HAYS           TSTM      63  59  88 N49G69    29.59R FOG
HILL CITY      TSTM      66  60  81 MISG      29.66F
RUSSELL        CLOUDY    71  60  68 NE12      29.55R
$$

KSZ061>065-074>080-084>089-260300-
SOUTHWEST KANSAS

CITY           SKY/WX    TMP DP  RH WIND       PRES   REMARKS
DODGE CITY     PTCLDY    78  58  49 SE13      29.46R
ELKHART          N/A     78  38  23 SW8         N/A
GARDEN CITY    PTCLDY    71  52  50 N31G39    29.50R
GREAT BEND     TSTM      72  64  76 S13       29.55R
LIBERAL        CLOUDY    76  51  41 SW12      29.47R
PRATT          MOCLDY    73  57  57 SE8       29.47R
$$

KSZ066>073-081>083-090>101-260300-
SOUTHEAST KANSAS

CITY           SKY/WX    TMP DP  RH WIND       PRES   REMARKS
CHANUTE        CLEAR     73  58  59 SE9       29.57R
COFFEYVILLE    CLEAR     74  61  63 SE10      29.56S
HUTCHINSON     PTCLDY    74  59  59 E7        29.50R
MEDICINE LODGE   N/A     77  59  53 SE9       29.46R
NEWTON         CLEAR     71  60  68 SE9       29.54R
PARSONS        PTCLDY    75  58  55 S8        29.57S
WICHITA INTL   CLOUDY    76  60  57 SE13      29.49R
WICHITA JABRA  PTCLDY    74  61  63 SE10      29.51R
WICHITA MCCONL CLOUDY    76  60  58 SE7       29.51R
WINFIELD       PTCLDY    75  61  61 SE10      29.52R
$$

KSZ007>012-019>026-033>040-048>060-102>105-260300-
NORTHEAST KANSAS

CITY           SKY/WX    TMP DP  RH WIND       PRES   REMARKS
CONCORDIA      CLOUDY    69  59  70 E5        29.58R
EMPORIA        CLEAR     70  58  65 SE9       29.56R
LAWRENCE       CLEAR     68  58  70 E8        29.60R
MANHATTAN      CLEAR     69  59  70 NE5       29.56R
MARYSVILLE     CLOUDY    70  57  64 SE5       29.60R
OLATHE IND     CLEAR     70  56  61 SE8       29.62R
OLATHE EXE     CLEAR     68  57  68 SE6       29.62R
SALINA         CLEAR     76  59  55 E8        29.51R
TOPEKA BILLARD CLEAR     68  58  70 E6        29.58R
TOPEKA FORBES  CLEAR     71  57  61 SE8       29.58R
$$




USA.gov is the U.S. government's official web portal to all federal, state and local government web resources and services.